KJ4CO Weather Reports


time (UTC)temp
C
wind
direction
speed
KPH
gust
KPH
rain 1hr
cm
rain 24hr
cm
rain mn
cm
humidity
%
barometer
mb
20260906121534 23 245 0.0 0.0 0.00 0.00 0.00 95 1012.5
20260906120032 23 245 0.0 0.0 0.00 0.00 0.00 95 1012.4
20260906114541 23 245 0.0 0.0 0.00 0.00 0.00 95 1012.2
20260906113028 23 245 0.0 0.0 0.00 0.00 0.00 95 1012.0
20260906111529 23 245 0.0 0.0 0.00 0.00 0.00 95 1011.8
20260906110024 23 245 0.0 0.0 0.00 0.00 0.00 95 1011.5
20260906104522 23 245 0.0 0.0 0.00 0.00 0.00 95 1011.5
20260906103020 23 245 0.0 0.0 0.00 0.00 0.00 95 1011.3
20260906101521 23 245 0.0 0.0 0.00 0.00 0.00 95 1011.1
20260906100018 23 245 0.0 0.0 0.00 0.00 0.00 95 1011.0
20260906094515 24 245 0.0 0.0 0.00 0.00 0.00 95 1010.9
20260906093014 24 245 0.0 0.0 0.00 0.00 0.00 94 1010.8
20260906091517 24 245 0.0 0.0 0.00 0.00 0.00 95 1010.7
20260906090011 24 245 0.0 0.0 0.00 0.00 0.00 95 1010.7
20260906084510 24 245 0.0 0.0 0.00 0.00 0.00 94 1010.8
20260906083011 25 245 0.0 0.0 0.00 0.00 0.00 94 1010.9
20260906081507 25 245 0.0 0.0 0.00 0.00 0.00 94 1010.8
20260906080008 25 245 0.0 0.0 0.00 0.00 0.00 94 1010.8
20260906074505 25 245 0.0 0.0 0.00 0.00 0.00 94 1010.7
20260906073004 25 245 0.0 0.0 0.00 0.00 0.00 94 1010.7
20260906071503 25 245 0.0 0.0 0.00 0.00 0.00 94 1010.5
20260906070002 25 245 0.0 0.0 0.00 0.00 0.00 94 1010.5
20260906064603 25 245 0.0 0.0 0.00 0.00 0.00 94 1010.7
20260906063058 25 245 0.0 0.0 0.00 0.00 0.00 94 1010.8
20260906061556 26 245 0.0 0.0 0.00 0.00 0.00 94 1010.9
20260906060140 26 245 0.0 0.0 0.00 0.00 0.00 94 1010.9
20260906054554 26 245 0.0 0.0 0.00 0.00 0.00 94 1011.0
20260906053054 26 245 0.0 0.0 0.00 0.00 0.00 94 1011.1
20260906051551 26 245 0.0 0.0 0.00 0.00 0.00 94 1011.2
20260906050105 26 245 0.0 0.0 0.00 0.00 0.00 93 1011.2
20260906044549 26 245 0.0 0.0 0.00 0.00 0.00 93 1011.2
20260906043049 26 245 0.0 0.0 0.00 0.00 0.00 93 1011.1
20260906041548 26 245 0.0 0.0 0.00 0.00 0.00 93 1011.1
20260906040048 26 245 0.0 0.0 0.00 0.00 0.00 93 1011.1
20260906034556 26 245 0.0 0.0 0.00 0.00 0.00 93 1011.0
20260906033045 26 245 0.0 0.0 0.00 0.00 0.00 92 1010.9
20260906031609 26 245 0.0 0.0 0.00 0.00 0.00 93 1010.9
20260906030047 26 245 0.0 0.0 0.00 0.00 0.00 92 1010.7
20260906024554 27 245 0.0 0.0 0.00 0.00 0.00 92 1010.6
20260906023104 27 245 0.0 0.0 0.00 0.00 0.00 91 1010.5
20260906021544 27 245 0.0 0.0 0.00 0.00 0.00 91 1010.3
20260906020050 27 245 0.0 0.0 0.00 0.00 0.00 90 1010.1
20260906014543 27 245 0.0 0.0 0.00 0.00 0.00 90 1010.0
20260906013043 28 245 0.0 0.0 0.00 0.00 0.00 89 1010.0
20260906011542 28 245 0.0 0.0 0.00 0.00 0.00 89 1009.9
20260906010042 28 245 0.0 0.0 0.00 0.00 0.00 88 1009.9
20260906004548 29 245 0.0 0.0 0.00 0.00 0.00 86 1009.8
20260906003048 30 245 0.0 0.0 0.00 0.00 0.00 86 1009.7
20260906001544 30 245 0.0 0.0 0.00 0.00 0.00 84 1009.6
20260906000040 30 245 0.0 0.0 0.00 0.00 0.00 84 1009.9
20260905234542 31 245 0.0 0.0 0.00 0.00 0.00 83 1009.9
20260905233046 31 245 0.0 0.0 0.00 0.00 0.00 79 1009.8
20260905231539 31 245 0.0 0.0 0.00 0.00 0.00 77 1009.8
20260905230038 32 245 0.0 0.0 0.00 0.00 0.00 75 1009.8
20260905224537 32 245 0.0 0.0 0.00 0.00 0.00 75 1009.8
20260905223036 33 245 0.0 0.0 0.00 0.00 0.00 72 1009.7
20260905221541 34 245 0.0 0.0 0.00 0.00 0.00 70 1009.8
20260905220033 34 245 0.0 0.0 0.00 0.00 0.00 69 1009.9
20260905214534 34 245 0.0 0.0 0.00 0.00 0.00 76 1009.9
20260905213028 34 245 0.0 0.0 0.00 0.00 0.00 73 1010.0
20260905211525 35 245 0.0 0.0 0.00 0.00 0.00 66 1010.1
20260905210023 35 245 0.0 0.0 0.00 0.00 0.00 65 1010.3
20260905204521 35 245 0.0 0.0 0.00 0.00 0.00 60 1010.3
20260905203018 35 245 0.0 0.0 0.00 0.00 0.00 57 1010.4
20260905201516 36 245 0.0 0.0 0.00 0.00 0.00 61 1010.7
20260905200013 36 245 0.0 0.0 0.00 0.00 0.00 56 1010.9
20260905194510 36 245 0.0 0.0 0.00 0.00 0.00 57 1011.1
20260905193007 36 245 0.0 0.0 0.00 0.00 0.00 60 1011.4
20260905191505 36 245 0.0 0.0 0.00 0.00 0.00 54 1011.6
20260905184600 36 245 0.0 0.0 0.00 0.00 0.00 53 1011.8
20260905183055 35 246 0.0 0.0 0.00 0.00 0.00 54 1012.0
20260905181552 35 246 0.0 0.0 0.00 0.00 0.00 58 1012.2
20260905180110 35 246 0.0 0.0 0.00 0.00 0.00 58 1012.5
20260905174547 35 246 0.0 0.0 0.00 0.00 0.00 57 1012.6
20260905173109 35 246 0.0 0.0 0.00 0.00 0.00 58 1012.7
20260905171552 34 246 0.0 0.0 0.00 0.00 0.00 59 1012.9
20260905170044 34 149 0.0 0.0 0.00 0.00 0.00 60 1012.9
20260905164542 33 149 0.0 0.0 0.00 0.00 0.00 64 1013.0
20260905163034 33 149 0.0 0.0 0.00 0.00 0.00 69 1013.2
20260905161531 32 149 0.0 0.0 0.00 0.00 0.00 72 1013.3
20260905160046 32 149 0.0 0.0 0.00 0.00 0.00 75 1013.4
20260905154526 31 149 0.0 0.0 0.00 0.00 0.00 78 1013.5
20260905153025 31 149 0.0 0.0 0.00 0.00 0.00 80 1013.5
20260905151519 30 149 0.0 0.0 0.00 0.00 0.00 83 1013.6
20260905150015 29 149 0.0 0.0 0.00 0.00 0.00 88 1013.5
20260905144514 28 149 0.0 0.0 0.00 0.00 0.00 89 1013.6
20260905143007 27 149 0.0 0.0 0.00 0.00 0.00 94 1013.7
20260905141510 27 147 0.0 0.0 0.00 0.00 0.00 96 1013.6
20260905140001 26 147 0.0 0.0 0.00 0.00 0.00 97 1013.7
20260905134603 26 147 0.0 0.0 0.00 0.00 0.00 97 1013.6
20260905133055 25 147 0.0 0.0 0.00 0.00 0.00 97 1013.7
20260905131554 24 147 0.0 0.0 0.00 0.00 0.00 97 1013.6
20260905130052 23 147 0.0 0.0 0.00 0.00 0.00 96 1013.4
20260905124554 23 147 0.0 0.0 0.00 0.00 0.00 96 1013.3
20260905123049 23 147 0.0 0.0 0.00 0.00 0.00 96 1013.2